STARLINK-34443, 64296

Orbit data source: Space-Track

STARLINK-34443, 64296 is a payload satellite owned by SpaceX/Seattle (US) in LEO that was launched on Sun, 08 Jun 2025 UTC via an FALCON 9 launch vehicle from the Air Force Western Test Range (AFWTR). Payload-class satellites include a variety of spacecraft equipped with specific instruments for various scientific and technological missions. These include communications satellites like Starlink; space stations such as the ISS; scientific satellites like the Hubble; Earth observation satellites from companies like Planet Labs, Umbra, and HawkEye 360; GPS; miniature CubeSats for education and research; and military/defense satellites.

Loading next visibility...
Identifier
64296, 2025-123F
Orbit
LEO
Country
Flag of USUS
Related business
Manufacturer
SpaceX/Seattle
Mission
Operational Commercial Communications
Bus & Motor
STARLINK V2MO, Unknown motor
Mass
575 kg wet, ~530 kg dry
Launch date (UTC)
2025-06-08 (10 months ago)
Launch vehicle
FALCON 9
Launch site
Air Force Western Test Range (AFWTR)
Object type
Payload
Rocket body
Debris
Shape & HBR
Box + 2 Pan, 17.7 m
Radar Cross Section
36.964 m², Large (>1 m²)

Expand to show TLE details & history
Last TLE update: 10 hours ago

TLE from 10 hours ago
0 STARLINK-34443
1 64296U 25123F   26093.83335647 -.00006138  00000-0 -50710-3 0  9995
2 64296  70.0003 131.0489 0003888 270.0080 146.5099 14.98321938  5703
Epoch: 2026-04-03T20:00Z
TLE epoch observation values (Epoch: 2026-04-03T20:00:01.999Z)
Latitude
51.74342°
Longitude
26.20519°
Altitude
582.104 km
Speed
7.574 km/s
True Right ascension
10h 33m 30s
True Declination
51° 34' 19"
Sunlit
Object was in full shadow at epoch
Visualization orbit readout
Latitude
Unknown
Longitude
Unknown
Altitude
Unknown
Speed
Unknown
Apparent Right ascension
Unknown
Apparent Declination
Unknown
Sunlit
N/A
Visualization observer readout
Local Sidereal Time
11:23:25
Azimuth
Unknown
Elevation
Unknown
Doppler factor
Unknown
Orbital elements
Apogee altitude
572.73 km
Perigee altitude
567.328 km
Semi-major axis
6,948.166 km
Eccentricity
0.00039
Inclination
70.0003°
RAAN
131.0489°
Arg. of periapsis
270.008°
True anomaly
146.53447°
Mean anomaly
146.5099°
Eccentric anomaly
146.52219°
Mean motion
3.74747 °/min
Orbital period
96.06 mins
BSTAR
-0.0005071
Loading maneuver chart data...
Computing Atmospheric mass density...
Loading historical data...
Loading historical data...
Loading historical data...
Loading historical data...
Loading historical data...
Loading historical data...
Loading historical data...

Documentation

Showing up to 5 results
|